Ketchikan, AK

6:25 AM AKST on December 18, 2018 (GMT -0900)
Ketchikan International

Weather History for PAKT - May, 2018

Change the Weather History Date:

Tuesday, May 15, 2018

  Actual Average Record
Temperature  
Mean Temperature 53 °F -  
Max Temperature 61 °F 55 °F 74 °F (1973)
Min Temperature 46 °F 40 °F 32 °F (1972)
Degree Days  
Heating Degree Days 12    
Growing Degree Days 3 (Base 50)    
Moisture  
Dew Point 40 °F    
Average Humidity 63    
Maximum Humidity 83    
Minimum Humidity 42    
Precipitation  
Precipitation 0.00 in - - ()
Sea Level Pressure  
Sea Level Pressure 30.06 in    
Wind  
Wind Speed 10 mph (NW)    
Max Wind Speed 16 mph    
Max Gust Speed 22 mph    
Visibility 10 miles    
Events      
Averages and records for this station are not official NWS values.
T = Trace of Precipitation, MM = Missing Value Source: NWS Daily Summary

Daily Weather History Graph

Daily Weather History Graph

Search for Another Location

Airport or City:

Astronomy

May. 15, 2018 Rise Set
Actual Time 4:36 AM AKDT 8:50 PM AKDT
Civil Twilight 3:48 AM AKDT 9:39 PM AKDT
Nautical Twilight 2:35 AM AKDT 10:53 PM AKDT
Astronomical Twilight 1:15 AM AKDT 12:10 AM AKDT
Moon 5:24 AM AKDT (5/15) 9:09 PM AKDT (5/15)
Length of Visible Light 17h 50m
Length of Day
16h 13m
New Moon, 0% of the Moon is Illuminated
May 15
New Moon
May 21
First Quarter
May 29
Full
Jun 6
Last Quarter
Jun 13
New

Hourly Weather History & Observations

Time (AKDT) Temp. Windchill Dew Point Humidity Pressure Visibility Wind Dir Wind Speed Gust Speed Precip Events Conditions
12:53 AM 46.0 °F 42.5 °F 39.9 °F 79% 30.09 in 10.0 mi NW 6.9 mph - N/A   Clear
1:53 AM 46.9 °F - 39.9 °F 77% 30.09 in 10.0 mi NW 11.5 mph - N/A   Clear
2:53 AM 46.0 °F 41.0 °F 41.0 °F 83% 30.09 in 10.0 mi NW 10.4 mph - N/A   Clear
3:53 AM 46.0 °F 41.4 °F 39.9 °F 79% 30.09 in 10.0 mi NW 9.2 mph - N/A   Clear
4:53 AM 46.0 °F 41.0 °F 39.9 °F 79% 30.09 in 10.0 mi NW 10.4 mph 17.3 mph N/A   Clear
5:53 AM 46.0 °F 41.4 °F 39.9 °F 79% 30.09 in 10.0 mi NW 9.2 mph - N/A   Clear
6:03 AM 46.0 °F 41.9 °F 39.9 °F 79% 30.08 in 10.0 mi NW 8.1 mph - N/A   Partly Cloudy
6:53 AM 48.9 °F - 41.0 °F 74% 30.09 in 10.0 mi NW 10.4 mph - N/A   Partly Cloudy
7:53 AM 51.8 °F - 39.2 °F 62% 30.09 in 10.0 mi NW 10.4 mph - N/A   Partly Cloudy
8:53 AM 53.6 °F - 39.2 °F 58% 30.08 in 10.0 mi NW 15.0 mph 20.7 mph N/A   Partly Cloudy
9:53 AM 55.4 °F - 39.2 °F 54% 30.07 in 10.0 mi NW 15.0 mph 21.9 mph N/A   Clear
10:53 AM 55.4 °F - 39.2 °F 54% 30.07 in 10.0 mi WNW 8.1 mph 17.3 mph N/A   Clear
11:53 AM 57.2 °F - 42.8 °F 59% 30.07 in 10.0 mi North 12.7 mph - N/A   Clear
12:53 PM 57.2 °F - 42.8 °F 59% 30.07 in 10.0 mi North 15.0 mph - N/A   Clear
1:53 PM 57.2 °F - 41.0 °F 55% 30.06 in 10.0 mi North 16.1 mph - N/A   Clear
2:53 PM 57.2 °F - 39.2 °F 51% 30.06 in 10.0 mi NNW 13.8 mph - N/A   Clear
3:53 PM 59.0 °F - 42.1 °F 53% 30.04 in 10.0 mi NNW 16.1 mph - N/A   Clear
5:53 PM 60.8 °F - 37.4 °F 42% 30.03 in 10.0 mi North 10.4 mph - N/A   Clear
6:53 PM 59.0 °F - 39.2 °F 48% 30.02 in 10.0 mi NNW 9.2 mph - N/A   Clear
7:53 PM 57.2 °F - 39.2 °F 51% 30.02 in 10.0 mi North 8.1 mph - N/A   Clear
8:53 PM 54.0 °F - 41.0 °F 62% 30.03 in 10.0 mi NNW 9.2 mph - N/A   Clear
9:53 PM 52.0 °F - 35.1 °F 53% 30.04 in 10.0 mi NW 6.9 mph - N/A   Clear
10:53 PM 52.0 °F - 35.1 °F 53% 30.04 in 10.0 mi NW 6.9 mph - N/A   Clear
11:53 PM 50.0 °F - 37.9 °F 63% 30.04 in 10.0 mi NNW 8.1 mph - N/A   Clear